Regional Weather Roundup
Issued by NWS

Home | Current Version | Previous Version | Graphics & Text | Print | Product List | Glossary On
Versions: 1 2 3 4 5 6 7 8 9 10 11 12 13 14 15 16 17 18 19 20 21 22 23 24 25 26 27 28 29 30 31 32 33 34 35 36 37 38 39 40 41 42 43 44 45 46 47 48 49 50
000
ASUS43 KMKX 231300
RWRWI

WISCONSIN REGIONAL WEATHER ROUNDUP
NATIONAL WEATHER SERVICE MILWAUKEE/SULLIVAN WI
800 AM CDT TUE MAY 23 2017

NOTE: "FAIR" INDICATES FEW OR NO CLOUDS BELOW 12,000 FEET WITH NO
SIGNIFICANT WEATHER AND/OR OBSTRUCTIONS TO VISIBILITY.

WIZ001-002-006>008-014>016-023>028-231400-
NORTHWEST WISCONSIN

CITY           SKY/WX    TMP DP  RH WIND       PRES   REMARKS
SUPERIOR ARPT  NOT AVBL
ASHLAND        CLOUDY    48  45  89 NE3       29.85S
HAYWARD        LGT RAIN  45  43  93 NE5       29.84R
SIREN          CLOUDY    46  46  99 CALM      29.84R
CUMBERLAND     CLOUDY    46  45  93 NE5       29.82S
RICE LAKE      CLOUDY    49  47  93 N6        29.84R
CHETEK         CLOUDY    49  48  98 CALM      29.82S
LADYSMITH      DRIZZLE   46  45  95 CALM      29.84R
EAU CLAIRE     NOT AVBL
MENOMONIE      CLOUDY    50  48  94 N6        29.81S
NEW RICHMOND   CLOUDY    48  47  97 CALM      29.82S
OSCEOLA        CLOUDY    49  49 100 N3        29.85R
$$

WIZ003>005-009-010-017-018-231400-
NORTH CENTRAL WISCONSIN

CITY           SKY/WX    TMP DP  RH WIND       PRES   REMARKS
MANITOWISH WTR DRIZZLE   45  45 100 CALM      29.84R
ARBOR VITAE    RAIN      45  44  95 CALM      29.84R
WOODRUFF       RAIN      45  44  95 CALM      29.84R
RHINELANDER    LGT RAIN  47  46  97 E5        29.84R
EAGLE RIVER    LGT RAIN  46  46 100 CALM      29.84R
LAND O LAKES   LGT RAIN  44  44 100 CALM      29.85S
PHILLIPS       CLOUDY    45  45  99 CALM      29.82R
TOMAHAWK       LGT RAIN  45  44  97 CALM      29.84R
MEDFORD        RAIN      46  45  93 E6        29.81S
MERRILL        CLOUDY    46  46 100 E5        29.82S
$$

WIZ029-030-035-036-043>047-231400-
CENTRAL WISCONSIN

CITY           SKY/WX    TMP DP  RH WIND       PRES   REMARKS
WAUSAU         CLOUDY    49  46  90 NE5       29.80R
MOSINEE        CLOUDY    48  48 100 NE6       29.80S
MARSHFIELD     CLOUDY    49  46  90 NE8       29.78S
STEVENS POINT  CLOUDY    49  46  87 E5        29.79S
WAUPACA        CLOUDY    55  48  78 NE5       29.79S
WAUTOMA        CLOUDY    52  51  97 NE6       29.78S
WISC RAPIDS    CLOUDY    52  47  83 E5        29.79S
CAMP DOUGLAS   NOT AVBL
$$

WIZ011>013-019>022-031-037>040-048>050-231400-
NORTHEAST WISCONSIN

CITY           SKY/WX    TMP DP  RH WIND       PRES   REMARKS
ANTIGO         CLOUDY    47  45  94 E5        29.83R
SHAWANO        CLOUDY    51  47  87 NE8       29.82S
OCONTO         CLOUDY    49  47  95 NE6       29.82R
STURGEON BAY   CLOUDY    50  46  86 NE6       29.83R
GREEN BAY      CLOUDY    55  48  77 E7        29.80R
MANITOWOC      NOT AVBL
APPLETON       CLOUDY    54  43  66 VRB5      29.78S
CLINTONVILLE   CLOUDY    50  46  87 NE6       29.80F
OSHKOSH        CLOUDY    57  54  89 S5        29.77F
$$

WIZ032>034-041-042-053>061-231400-
SOUTHWEST WISCONSIN

CITY           SKY/WX    TMP DP  RH WIND       PRES   REMARKS
LA CROSSE      CLOUDY    55  53  93 N5        29.77S
SPARTA         CLOUDY    49  49 100 CALM      29.78S FOG
VIROQUA        CLOUDY    51  51 100 MISG      29.77R
BOSCOBEL       CLOUDY    54  53  97 CALM      29.77S FOG
PRAIRIE DU CHI CLOUDY    52  51  97 CALM      29.77S
PLATTEVILLE    CLOUDY    54  54 100 SW9       29.78S
$$

WIZ056-057-062-063-064-067-068-231400-
SOUTH CENTRAL WISCONSIN

CITY           SKY/WX    TMP DP  RH WIND       PRES   REMARKS
REEDSBURG      CLOUDY    53  53 100 CALM      29.76S
BARABOO/DELLS  CLOUDY    53  52  96 CALM      29.77S FOG
LONE ROCK      CLOUDY    54  54 100 CALM      29.76F FOG
MINERAL POINT  CLOUDY    54  54 100 SW8       29.77S
MADISON        CLOUDY    56  54  93 VRB3      29.76S
MIDDLETON      CLOUDY    56  56  99 CALM      29.77S
WATERTOWN      CLOUDY    56  56  99 SW6       29.78S
MONROE         CLOUDY    54  52  94 SW7       29.78R
JANESVILLE     CLOUDY    57  55  94 SW12      29.78S
$$

WIZ051-052-058>065-066-070>072-231400-
SOUTHEAST WISCONSIN

CITY           SKY/WX    TMP DP  RH WIND       PRES   REMARKS
MILWAUKEE      CLOUDY    61  55  81 SW7       29.79S
WAUKESHA       CLOUDY    54  54 100 S5        29.80R
MILWAUKEE/TIMM PTSUNNY   57  52  82 W3        29.79F
RACINE         PTSUNNY   62  54  74 VRB6      29.80S
KENOSHA        MOSUNNY   60  53  77 SW10      29.79S
FOND DU LAC    CLOUDY    58  53  84 S5        29.78S
SHEBOYGAN      CLOUDY    54  52  93 CALM      29.78F
WEST BEND      CLOUDY    55  55 100 SW6       29.78F
JUNEAU         CLOUDY    55  54  94 CALM      29.79S
$$

LSZ147-162-231400-
LAKE SUPERIOR

STATION/POSITION TIME  TEMP    WIND        PRES    WAVE
                       AIR SEA DIR/SP/G            HT/PER
                 (UTC) (F)     (DEG/KT/KT) (MB)    (FT/S)
W MID LAKE BUOY  1150   41 37   10/ 10/ 10 1011.0R   0
DEVILS ISLAND    1200   45      10/  8/  8 1011.2R
PORT WING        1240   44     360/  1/  2 1011.2R
SAXON HARBOR     1240   45      CALM  /  3 1010.8R
$$

LMZ867-665-643>646-231400-
LAKE MICHIGAN

STATION/POSITION TIME  TEMP    WIND        PRES    WAVE
                       AIR SEA DIR/SP/G            HT/PER
                 (UTC) (F)     (DEG/KT/KT) (MB)    (FT/S)
CHAMBERS ISLAND  1240   47      30/  7/  8 1009.8F
N MID LAKE BUOY  1150   41 39   70/  4/  4 1011.3R   1/ 5
NORTHPORT PIER   1240   47      10/  2/  3 1010.5R
SISTER BAY       1206   48        CALM       N/A
ALGOMA LAKESHORE 1215           60/  8/ 10   N/A
KEWAUNEE LAKESHO 1230   47      30/  6/  8 1009.1S
SHEBOYGAN LAKESH 1200   51     280/  3/  3 1008.7R
PORT WASHINGTON  1230   54     120/  2/  3 1009.5F
ATWATER BUOY     1239   48     120/  4/  4 1008.8F
MILWAUKEE LAKESH 1230   52      CALM  /  1   N/A
S MID LAKE BUOY  1150   48 45  160/  6/  6 1009.7R   1/ 4
KENOSHA   LAKESH 1200   59     230/ 10/ 17 1009.1
$$

TC  - TEMPERATURE IN CELSIUS
VSB - VISIBILITY IN STATUTE MILES
WCI - WIND CHILL INDEX
HX  - HEAT INDEX




USA.gov is the U.S. government's official web portal to all federal, state and local government web resources and services.